Skip Page Navigation
NASA JPL Caltech
NASA Logo - Jet Propulsion Laboratory + View the NASA Portal
+ Center for Near-Earth Object Studies
JPL Home Earth Solar System Stars & Galaxies Technology
JPL Solar System Dynamics
BODIES ORBITS EPHEMERIDES TOOLS PHYSICAL DATA DISCOVERY FAQ SITE MAP
IMPORTANT: The SSD Announcement email list is now available. Major changes are coming in the near future, including possible hostname and/or URL changes. To be notified of such changes, subscribe to this email list.

Please visit this page for more details.


JPL Small-Body Database Browser
Search: [ help ]  
58785 (1998 FT77)
Classification: Main-belt Asteroid          SPK-ID: 2058785
Ephemeris | Orbit Diagram | Orbital Elements | Mission Design | Physical Parameters | Discovery Circumstances | Close-Approach Data ]

[ show orbit diagram ]
Orbital Elements at Epoch 2459000.5 (2020-May-31.0) TDB
Reference: JPL 28 (heliocentric ecliptic J2000)
 Element Value Uncertainty (1-sigma)   Units 
e .1416223994975951 4.4236e-08  
a 2.762328025442423 1.4381e-08 au
q 2.371120502279813 1.2291e-07 au
i 9.70143910469297 5.542e-06 deg
node 43.04677967729759 2.5439e-05 deg
peri 27.20875453938104 3.2835e-05 deg
M 49.99280526177965 1.9235e-05 deg
tp 2458767.628517669671
(2019-Oct-11.12851767)
8.9154e-05 TDB
period 1676.915972207119
4.59
1.3095e-05
3.585e-08
d
yr
n .2146798086287986 1.6764e-09 deg/d
Q 3.153535548605032 1.6417e-08 au
  Orbit Determination Parameters
   # obs. used (total)      1322  
   data-arc span      7985 days (21.86 yr)  
   first obs. used      1998-03-24  
   last obs. used      2020-02-02  
   planetary ephem.      DE431  
   SB-pert. ephem.      SB431-N16  
   condition code      0  
   norm. resid. RMS      .5314  
   source      ORB  
   producer      Otto Matic  
   solution date      2020-Feb-23 12:36:28  

Additional Information
 Earth MOID = 1.38936 au 
 Jupiter MOID = 2.1888 au 
 T_jup = 3.306 
[ show covariance matrix ]

Ephemeris | Orbit Diagram | Orbital Elements | Mission Design | Physical Parameters | Discovery Circumstances | Close-Approach Data ]

Physical Parameter Table
Parameter Symbol Value Units Sigma Reference Notes
absolute magnitude H 14.1   n/a MPO502542  

58785 (1998 FT77)          Discovered 1998-Mar-24 by LINEAR at Socorro
Reference: 20030614/Numbers.arcLast Updated: 2004-04-19

[ show close-approach data ]
Alternate Designations
 1998 FT77 = 2000 QC102 
Ephemeris | Orbit Diagram | Orbital Elements | Mission Design | Physical Parameters | Discovery Circumstances | Close-Approach Data ]
ABOUT SSD CREDITS/AWARDS PRIVACY/COPYRIGHT GLOSSARY LINKS
FirstGov 2020-Apr-01 09:45 UT
(server date/time)  
NASA Home Page
Site Manager:   Ryan S. Park
Webmaster  Alan B. Chamberlin